Regional Weather Roundup
Issued by NWS

Home | Current Version | Previous Version | Graphics & Text | Print | Product List | Glossary On
Versions: 1 2 3 4 5 6 7 8 9 10 11 12 13 14 15 16 17 18 19 20 21 22 23 24 25 26 27 28
000
ASUS45 KCYS 231410
RWRWY

WYOMING REGIONAL WEATHER ROUNDUP
NATIONAL WEATHER SERVICE CHEYENNE WY
800 AM MDT WED APR 23 2014

NOTE:  "FAIR" INDICATES FEW OR NO CLOUDS BELOW 12,000 FEET
WITH NO SIGNIFICANT WEATHER AND/OR OBSTRUCTIONS TO VISIBILITY.

WYZ001-231500-
YELLOWSTONE NATIONAL PARK

CITY           SKY/WX    TMP DP  RH WIND       PRES   REMARKS
LK YELLOWSTONE   N/A     25  22  88 VRB5      29.77R WCI  19
W YELLOWSTONE  NOT AVBL

$$
WYZ002>013-054>058-071-098>099-231500-
NORTHERN WYOMING

CITY           SKY/WX    TMP DP  RH WIND       PRES   REMARKS
JACKSON        CLOUDY    30  21  69 S15G22    29.82R WCI  19
CODY           PTSUNNY   43  23  45 W21G36    29.58R
GREYBULL       CLOUDY    48  31  51 W15       29.60R
WORLAND        PTSUNNY   50  29  44 N13       29.60R
SHERIDAN         N/A     36  28  75 W15G24      N/A  WCI  26
BUFFALO        MOSUNNY   44  34  67 N16G26    29.59R
GILLETTE       CLOUDY    50  36  58 W7        29.52R
HULETT         CLOUDY    55  36  47 SW13G21   29.53
NEWCASTLE      FAIR      54  36  50 CALM      29.57

$$
WYZ014>020-022>026-101>103-231500-
CENTRAL WYOMING

CITY           SKY/WX    TMP DP  RH WIND       PRES   REMARKS
BIG PINEY      MOSUNNY   31  11  43 NW18G24   29.85R WCI  19
PINEDALE       MOSUNNY   32  19  59 NW10      29.84R WCI  24
DUBOIS         CLOUDY    32  14  47 NW16G25   29.74R WCI  21
LANDER         SUNNY     43  15  32 W15G23    29.68R
RIVERTON       SUNNY     44  21  40 W16       29.70R
CASPER         SUNNY     45  28  51 SW28G37   29.66R
DOUGLAS        PTSUNNY   50  26  39 SW6       29.66R

$$
WYZ021-027>030-104>119-231500-
SOUTHERN WYOMING

CITY           SKY/WX    TMP DP  RH WIND       PRES   REMARKS
EVANSTON       PTSUNNY   28  22  78 W14       29.92R WCI  17
FORT BRIDGER   CLOUDY    29  25  84 W17G26    29.92R WCI  17
ROCK SPRINGS   PTSUNNY   32  23  69 W22G28    29.86R WCI  19
DIXON          CLOUDY    37  33  85 CALM      29.90R
RAWLINS        PTSUNNY   35  28  75 W22G30    29.82R WCI  23
SARATOGA       FAIR      34  28  80 W20       29.84R WCI  22
LARAMIE        CLOUDY    41  28  60 SW16      29.76R
CHEYENNE       PTSUNNY   48  32  53 NW23G37   29.68R
TORRINGTON     CLOUDY    54  34  46 W23G35    29.60R
PINE BLUFFS    FAIR      46  32  57 NW18G28   29.63S

$$



USA.gov is the U.S. government's official web portal to all federal, state and local government web resources and services.